| time (UTC) | temp C | wind direction | speed KPH | gust KPH | rain 1hr cm | rain 24hr cm | rain mn cm | humidity % | barometer mb |
| 20260505024729 | -17 | 241 | 0.0 | 0.0 | 0.00 | 0.00 | 0.00 | 1070.1 | |
| 20260505024154 | -17 | 221 | 0.0 | 0.0 | 0.00 | 0.00 | 0.00 | 1070.1 | |
| 20260505023654 | -17 | 234 | 0.0 | 0.0 | 0.00 | 0.00 | 0.00 | 1070.1 | |
| 20260505023154 | -17 | 230 | 0.0 | 0.0 | 0.00 | 0.00 | 0.00 | 1070.2 | |
| 20260505022149 | -17 | 194 | 0.0 | 0.0 | 0.00 | 0.00 | 0.00 | 1070.2 | |
| 20260505021138 | -17 | 243 | 0.0 | 0.0 | 0.00 | 0.00 | 0.00 | 1070.3 | |
| 20260505020636 | -17 | 312 | 0.0 | 0.0 | 0.00 | 0.00 | 0.00 | 1070.3 | |
| 20260505020136 | -17 | 244 | 0.0 | 0.0 | 0.00 | 0.00 | 0.00 | 1070.3 | |
| 20260505015633 | -17 | 203 | 0.0 | 0.0 | 0.00 | 0.00 | 0.00 | 1070.3 | |
| 20260505015343 | -17 | 237 | 0.0 | 0.0 | 0.00 | 0.00 | 0.00 | 1070.3 | |
| 20260505014606 | -17 | 238 | 0.0 | 0.0 | 0.00 | 0.00 | 0.00 | 1070.4 | |
| 20260505014103 | -17 | 215 | 0.0 | 0.0 | 0.00 | 0.00 | 0.00 | 1070.4 | |
| 20260505013558 | -17 | 237 | 0.0 | 0.0 | 0.00 | 0.00 | 0.00 | 1070.4 | |
| 20260505013057 | -17 | 229 | 0.0 | 0.0 | 0.00 | 0.00 | 0.00 | 1070.4 | |
| 20260505012558 | -17 | 258 | 0.0 | 0.0 | 0.00 | 0.00 | 0.00 | 1070.3 | |
| 20260505012058 | -17 | 245 | 0.0 | 0.0 | 0.00 | 0.00 | 0.00 | 1070.3 | |
| 20260505011556 | -17 | 227 | 0.0 | 0.0 | 0.00 | 0.00 | 0.00 | 1070.2 | |
| 20260505011054 | -17 | 214 | 0.0 | 0.0 | 0.00 | 0.00 | 0.00 | 1070.3 | |
| 20260505010552 | -17 | 221 | 0.0 | 0.0 | 0.00 | 0.00 | 0.00 | 1070.2 | |
| 20260505010052 | -17 | 244 | 0.0 | 0.0 | 0.00 | 0.00 | 0.00 | 1070.2 | |
| 20260505005552 | -17 | 229 | 0.0 | 0.0 | 0.00 | 0.00 | 0.00 | 1070.1 | |
| 20260505005050 | -17 | 244 | 0.0 | 0.0 | 0.00 | 0.00 | 0.00 | 1070.1 | |
| 20260505004538 | -17 | 216 | 0.0 | 0.0 | 0.00 | 0.00 | 0.00 | 1070.1 | |
| 20260505004036 | -17 | 185 | 0.0 | 0.0 | 0.00 | 0.00 | 0.00 | 1070.0 | |
| 20260505003507 | -17 | 269 | 0.0 | 0.0 | 0.00 | 0.00 | 0.00 | 1069.9 | |
| 20260505003007 | -17 | 219 | 0.0 | 0.0 | 0.00 | 0.00 | 0.00 | 1069.8 | |
| 20260505002458 | -17 | 255 | 0.0 | 0.0 | 0.00 | 0.00 | 0.00 | 1069.8 | |
| 20260505001956 | -17 | 208 | 0.0 | 0.0 | 0.00 | 0.00 | 0.00 | 1069.7 | |
| 20260505001452 | -17 | 233 | 0.0 | 0.0 | 0.00 | 0.00 | 0.00 | 1069.7 | |
| 20260505000952 | -17 | 245 | 0.0 | 0.0 | 0.00 | 0.00 | 0.00 | 1069.7 | |
| 20260505000451 | -17 | 237 | 0.0 | 0.0 | 0.00 | 0.00 | 0.00 | 1069.5 | |
| 20260504235949 | -17 | 201 | 0.0 | 0.0 | 0.00 | 0.00 | 0.00 | 1069.5 | |
| 20260504235449 | -17 | 247 | 0.0 | 0.0 | 0.00 | 0.00 | 0.00 | 1069.5 | |
| 20260504234939 | -17 | 175 | 0.0 | 0.0 | 0.00 | 0.00 | 0.00 | 1069.5 | |
| 20260504234407 | -17 | 206 | 0.0 | 0.0 | 0.00 | 0.00 | 0.00 | 1069.5 | |
| 20260504233855 | -17 | 222 | 0.0 | 0.0 | 0.00 | 0.00 | 0.00 | 1069.5 | |
| 20260504233348 | -17 | 214 | 0.0 | 0.0 | 0.00 | 0.00 | 0.00 | 1069.5 | |
| 20260504232836 | -17 | 215 | 0.0 | 0.0 | 0.00 | 0.00 | 0.00 | 1069.5 | |
| 20260504232331 | -17 | 214 | 0.0 | 0.0 | 0.00 | 0.00 | 0.00 | 1069.7 | |
| 20260504231753 | -17 | 213 | 0.0 | 0.0 | 0.00 | 0.00 | 0.00 | 1069.7 | |
| 20260504231236 | -17 | 214 | 0.0 | 0.0 | 0.00 | 0.00 | 0.00 | 1069.7 | |
| 20260504230653 | -17 | 214 | 0.0 | 0.0 | 0.00 | 0.00 | 0.00 | 1069.7 | |
| 20260504230154 | -17 | 214 | 0.0 | 0.0 | 0.00 | 0.00 | 0.00 | 1069.5 | |
| 20260504225651 | -17 | 219 | 0.0 | 0.0 | 0.00 | 0.00 | 0.00 | 1069.4 | |
| 20260504225421 | -17 | 210 | 0.0 | 0.0 | 0.00 | 0.00 | 0.00 | 1069.4 | |
| 20260504224639 | -17 | 210 | 0.0 | 0.0 | 0.00 | 0.00 | 0.00 | 1069.3 | |
| 20260504224129 | -17 | 216 | 0.0 | 0.0 | 0.00 | 0.00 | 0.00 | 1069.3 | |
| 20260504223552 | -17 | 211 | 0.0 | 0.0 | 0.00 | 0.00 | 0.00 | 1069.3 | |
| 20260504223052 | -17 | 179 | 0.0 | 0.0 | 0.00 | 0.00 | 0.00 | 1069.2 | |
| 20260504222821 | -17 | 0.0 | 0.0 | 0.00 | 0.00 | 0.00 | 1069.1 | ||
| 20260504222050 | -17 | 0.0 | 0.0 | 0.00 | 0.00 | 0.00 | 1069.2 | ||
| 20260504221544 | -17 | 0.0 | 0.0 | 0.00 | 0.00 | 0.00 | 1069.0 | ||
| 20260504220952 | -17 | 0.0 | 0.0 | 0.00 | 0.00 | 0.00 | 1069.0 | ||
| 20260504220452 | -17 | 0.0 | 0.0 | 0.00 | 0.00 | 0.00 | 1069.0 | ||
| 20260504215949 | -17 | 0.0 | 0.0 | 0.00 | 0.00 | 0.00 | 1068.9 | ||
| 20260504215354 | -17 | 0.0 | 0.0 | 0.00 | 0.00 | 0.00 | 1068.8 | ||
| 20260504214847 | -17 | 0.0 | 0.0 | 0.00 | 0.00 | 0.00 | 1068.8 | ||
| 20260504214253 | -17 | 0.0 | 0.0 | 0.00 | 0.00 | 0.00 | 1068.7 | ||
| 20260504213751 | -17 | 0.0 | 0.0 | 0.00 | 0.00 | 0.00 | 1068.6 | ||
| 20260504213251 | -17 | 0.0 | 0.0 | 0.00 | 0.00 | 0.00 | 1068.6 | ||
| 20260504212748 | -17 | 0.0 | 0.0 | 0.00 | 0.00 | 0.00 | 1068.6 | ||
| 20260504212249 | -17 | 216 | 0.0 | 0.0 | 0.00 | 0.00 | 0.00 | 1068.5 | |
| 20260504211702 | -17 | 216 | 0.0 | 0.0 | 0.00 | 0.00 | 0.00 | 1068.4 | |
| 20260504211136 | -17 | 216 | 0.0 | 0.0 | 0.00 | 0.00 | 0.00 | 1068.4 | |
| 20260504210635 | -17 | 216 | 0.0 | 0.0 | 0.00 | 0.00 | 0.00 | 1068.3 | |
| 20260504210049 | -17 | 216 | 0.0 | 0.0 | 0.00 | 0.00 | 0.00 | 1068.3 | |
| 20260504205748 | -17 | 216 | 0.0 | 0.0 | 0.00 | 0.00 | 0.00 | 1068.2 | |
| 20260504204949 | -17 | 216 | 0.0 | 0.0 | 0.00 | 0.00 | 0.00 | 1068.2 | |
| 20260504204715 | -17 | 216 | 0.0 | 0.0 | 0.00 | 0.00 | 0.00 | 1068.1 | |
| 20260504203912 | -17 | 216 | 0.0 | 0.0 | 0.00 | 0.00 | 0.00 | 1068.0 | |
| 20260504203628 | -17 | 216 | 0.0 | 0.0 | 0.00 | 0.00 | 0.00 | 1068.0 | |
| 20260504202851 | -17 | 216 | 0.0 | 0.0 | 0.00 | 0.00 | 0.00 | 1067.9 | |
| 20260504202254 | -17 | 216 | 0.0 | 0.0 | 0.00 | 0.00 | 0.00 | 1067.8 | |
| 20260504201727 | -17 | 216 | 0.0 | 0.0 | 0.00 | 0.00 | 0.00 | 1067.9 | |
| 20260504201153 | -17 | 216 | 0.0 | 0.0 | 0.00 | 0.00 | 0.00 | 1067.8 | |
| 20260504200654 | -17 | 216 | 0.0 | 0.0 | 0.00 | 0.00 | 0.00 | 1067.7 | |
| 20260504200144 | -17 | 216 | 0.0 | 0.0 | 0.00 | 0.00 | 0.00 | 1067.7 | |
| 20260504195630 | -17 | 216 | 0.0 | 0.0 | 0.00 | 0.00 | 0.00 | 1067.7 | |
| 20260504195052 | -17 | 216 | 0.0 | 0.0 | 0.00 | 0.00 | 0.00 | 1067.6 | |
| 20260504194553 | -17 | 216 | 0.0 | 0.0 | 0.00 | 0.00 | 0.00 | 1067.5 | |
| 20260504194049 | -17 | 216 | 0.0 | 0.0 | 0.00 | 0.00 | 0.00 | 1067.5 | |
| 20260504193545 | -17 | 216 | 0.0 | 0.0 | 0.00 | 0.00 | 0.00 | 1067.4 | |
| 20260504193003 | -17 | 216 | 0.0 | 0.0 | 0.00 | 0.00 | 0.00 | 1067.4 | |
| 20260504192657 | -17 | 216 | 0.0 | 0.0 | 0.00 | 0.00 | 0.00 | 1067.4 | |
| 20260504191324 | -17 | 208 | 0.0 | 0.0 | 0.00 | 0.00 | 0.00 | 1067.3 | |
| 20260504190804 | -17 | 225 | 0.0 | 0.0 | 0.00 | 0.00 | 0.00 | 1067.3 | |
| 20260504190252 | -17 | 216 | 0.0 | 0.0 | 0.00 | 0.00 | 0.00 | 1067.3 | |
| 20260504185731 | -17 | 216 | 0.0 | 0.0 | 0.00 | 0.00 | 0.00 | 1067.2 | |
| 20260504185223 | -17 | 216 | 0.0 | 0.0 | 0.00 | 0.00 | 0.00 | 1067.2 | |
| 20260504184657 | -17 | 216 | 0.0 | 0.0 | 0.00 | 0.00 | 0.00 | 1067.2 | |
| 20260504184148 | -17 | 216 | 0.0 | 0.0 | 0.00 | 0.00 | 0.00 | 1067.2 | |
| 20260504183922 | -17 | 216 | 0.0 | 0.0 | 0.00 | 0.00 | 0.00 | 1067.1 | |
| 20260504183136 | -17 | 216 | 0.0 | 0.0 | 0.00 | 0.00 | 0.00 | 1067.1 | |
| 20260504182550 | -17 | 216 | 0.0 | 0.0 | 0.00 | 0.00 | 0.00 | 1067.0 | |
| 20260504182017 | -17 | 216 | 0.0 | 0.0 | 0.00 | 0.00 | 0.00 | 1067.0 | |
| 20260504181456 | -17 | 216 | 0.0 | 0.0 | 0.00 | 0.00 | 0.00 | 1067.0 | |
| 20260504180946 | -17 | 216 | 0.0 | 0.0 | 0.00 | 0.00 | 0.00 | 1066.8 | |
| 20260504180651 | -17 | 216 | 0.0 | 0.0 | 0.00 | 0.00 | 0.00 | 1067.0 | |
| 20260504175856 | -17 | 216 | 0.0 | 0.0 | 0.00 | 0.00 | 0.00 | 1067.0 | |
| 20260504175622 | -17 | 216 | 0.0 | 0.0 | 0.00 | 0.00 | 0.00 | 1067.0 | |
| 20260504174849 | -17 | 216 | 0.0 | 0.0 | 0.00 | 0.00 | 0.00 | 1067.1 | |
| 20260504174331 | -17 | 216 | 0.0 | 0.0 | 0.00 | 0.00 | 0.00 | 1067.1 | |
| 20260504174019 | -17 | 216 | 0.0 | 0.0 | 0.00 | 0.00 | 0.00 | 1067.0 | |
| 20260504173247 | -17 | 216 | 0.0 | 0.0 | 0.00 | 0.00 | 0.00 | 1067.0 | |
| 20260504172747 | -17 | 216 | 0.0 | 0.0 | 0.00 | 0.00 | 0.00 | 1067.0 | |
| 20260504172509 | -17 | 216 | 0.0 | 0.0 | 0.00 | 0.00 | 0.00 | 1067.1 | |
| 20260504171651 | -17 | 216 | 0.0 | 0.0 | 0.00 | 0.00 | 0.00 | 1067.1 | |
| 20260504171152 | -17 | 216 | 0.0 | 0.0 | 0.00 | 0.00 | 0.00 | 1067.2 | |
| 20260504170636 | -17 | 216 | 0.0 | 0.0 | 0.00 | 0.00 | 0.00 | 1067.2 | |
| 20260504160250 | -17 | 224 | 0.0 | 0.0 | 0.00 | 0.00 | 0.00 | 1067.1 | |
| 20260504150949 | -17 | 224 | 0.0 | 0.0 | 0.00 | 0.00 | 0.00 | 1067.0 | |
| 20260504150412 | -17 | 224 | 0.0 | 0.0 | 0.00 | 0.00 | 0.00 | 1067.0 | |
| 20260504141259 | -17 | 224 | 0.0 | 0.0 | 0.00 | 0.00 | 0.00 | 1066.6 | |
| 20260504140747 | -17 | 224 | 0.0 | 0.0 | 0.00 | 0.00 | 0.00 | 1066.6 | |
| 20260504140244 | -17 | 224 | 0.0 | 0.0 | 0.00 | 0.00 | 0.00 | 1066.6 | |
| 20260504130449 | -17 | 224 | 0.0 | 0.0 | 0.00 | 0.00 | 0.00 | 1066.5 | |
| 20260504120152 | -17 | 223 | 0.0 | 0.0 | 0.00 | 0.00 | 0.00 | 1066.2 | |
| 20260504110355 | -17 | 223 | 0.0 | 0.0 | 0.00 | 0.00 | 0.00 | 1065.6 | |
| 20260504100555 | -17 | 225 | 0.0 | 0.0 | 0.00 | 0.00 | 0.00 | 1064.7 | |
| 20260504081826 | -17 | 226 | 0.0 | 0.0 | 0.00 | 0.00 | 0.00 | 1063.1 | |
| 20260504081554 | -17 | 248 | 0.0 | 0.0 | 0.00 | 0.00 | 0.00 | 1063.0 | |
| 20260504080823 | -17 | 196 | 0.0 | 0.0 | 0.00 | 0.00 | 0.00 | 1062.9 | |
| 20260504080322 | -17 | 248 | 0.0 | 0.0 | 0.00 | 0.00 | 0.00 | 1062.9 | |
| 20260504070222 | -17 | 222 | 0.0 | 0.0 | 0.00 | 0.00 | 0.00 | 1062.3 | |
| 20260504060210 | -17 | 225 | 0.0 | 0.0 | 0.00 | 0.00 | 0.00 | 1061.8 | |
| 20260504050650 | -17 | 229 | 0.0 | 0.0 | 0.00 | 0.00 | 0.00 | 1061.1 | |
| 20260504050150 | -17 | 254 | 0.0 | 0.0 | 0.00 | 0.00 | 0.00 | 1061.0 | |
| 20260504045650 | -17 | 225 | 0.0 | 0.0 | 0.00 | 0.00 | 0.00 | 1060.9 | |
| 20260504045150 | -17 | 262 | 0.0 | 0.0 | 0.00 | 0.00 | 0.00 | 1061.0 | |
| 20260504044921 | -17 | 233 | 0.0 | 0.0 | 0.00 | 0.00 | 0.00 | 1060.9 | |
| 20260504044150 | -17 | 205 | 0.0 | 0.0 | 0.00 | 0.00 | 0.00 | 1060.9 | |
| 20260504043650 | -17 | 227 | 0.0 | 0.0 | 0.00 | 0.00 | 0.00 | 1060.8 | |
| 20260504043150 | -17 | 241 | 0.0 | 0.0 | 0.00 | 0.00 | 0.00 | 1060.8 | |
| 20260504042650 | -17 | 206 | 0.0 | 0.0 | 0.00 | 0.00 | 0.00 | 1060.8 | |
| 20260504042152 | -17 | 206 | 0.0 | 0.0 | 0.00 | 0.00 | 0.00 | 1060.7 | |
| 20260504041644 | -17 | 347 | 0.0 | 0.0 | 0.00 | 0.00 | 0.00 | 1060.7 | |
| 20260504041142 | -17 | 183 | 0.0 | 0.0 | 0.00 | 0.00 | 0.00 | 1060.8 | |
| 20260504040641 | -17 | 214 | 0.0 | 0.0 | 0.00 | 0.00 | 0.00 | 1060.8 | |
| 20260504040138 | -17 | 226 | 0.0 | 0.0 | 0.00 | 0.00 | 0.00 | 1060.8 | |
| 20260504035637 | -17 | 230 | 0.0 | 0.0 | 0.00 | 0.00 | 0.00 | 1060.7 | |
| 20260504035408 | -17 | 206 | 0.0 | 0.0 | 0.00 | 0.00 | 0.00 | 1060.7 | |
| 20260504034638 | -17 | 218 | 0.0 | 0.0 | 0.00 | 0.00 | 0.00 | 1060.7 | |
| 20260504034406 | -17 | 214 | 0.0 | 0.0 | 0.00 | 0.00 | 0.00 | 1060.6 | |
| 20260504033636 | -17 | 256 | 0.0 | 0.0 | 0.00 | 0.00 | 0.00 | 1060.6 | |
| 20260504033134 | -17 | 187 | 0.0 | 0.0 | 0.00 | 0.00 | 0.00 | 1060.6 | |
| 20260504032634 | -17 | 221 | 0.0 | 0.0 | 0.00 | 0.00 | 0.00 | 1060.6 | |
| 20260504032131 | -17 | 191 | 0.0 | 0.0 | 0.00 | 0.00 | 0.00 | 1060.6 | |
| 20260504031631 | -17 | 182 | 0.0 | 0.0 | 0.00 | 0.00 | 0.00 | 1060.7 | |
| 20260504031130 | -17 | 241 | 0.0 | 0.0 | 0.00 | 0.00 | 0.00 | 1060.7 | |
| 20260504030130 | -17 | 219 | 0.0 | 0.0 | 0.00 | 0.00 | 0.00 | 1060.7 | |
| 20260504025630 | -17 | 226 | 0.0 | 0.0 | 0.00 | 0.00 | 0.00 | 1060.8 |